Regional Weather Roundup
Issued by NWS

Home | Current Version | Previous Version | Graphics & Text | Print | Product List | Glossary On
Versions: 1 2 3 4 5 6 7 8 9 10 11 12 13 14 15 16 17 18 19 20 21 22 23 24 25 26 27 28 29 30 31 32 33 34 35 36 37 38 39 40 41 42 43 44 45 46 47 48 49 50
279
ASUS45 KCYS 161910
RWRWY

WYOMING REGIONAL WEATHER ROUNDUP
NATIONAL WEATHER SERVICE CHEYENNE WY
1200 PM MST TUE JAN 16 2018

NOTE:  "FAIR" INDICATES FEW OR NO CLOUDS BELOW 12,000 FEET
WITH NO SIGNIFICANT WEATHER AND/OR OBSTRUCTIONS TO VISIBILITY.

WYZ001-162000-
YELLOWSTONE NATIONAL PARK

CITY           SKY/WX    TMP DP  RH WIND       PRES   REMARKS
LK YELLOWSTONE   N/A      5   0  79 SE3       30.34F
W YELLOWSTONE  NOT AVBL

$$
WYZ002>013-054>058-071-098>099-162000-
NORTHERN WYOMING

CITY           SKY/WX    TMP DP  RH WIND       PRES   REMARKS
JACKSON        FLURRIES  16  10  79 NE3       30.39F
CODY           FAIR      32  20  61 N3        30.24F
GREYBULL       FAIR       7   0  73 CALM      30.32F
WORLAND        FAIR       5   3  91 SW3       30.29F
SHERIDAN       FAIR       9  -1  64 CALM      30.22F
BUFFALO        FAIR      28   9  44 SE8       30.19F WCI  20
GILLETTE       FAIR      24  13  62 S17       30.25F WCI  11
HULETT         FAIR      27   9  46 MISG      30.28F
NEWCASTLE      FAIR      21   0  39 SE9       30.38F WCI  11

$$
WYZ014>020-022>026-101>103-162000-
CENTRAL WYOMING

CITY           SKY/WX    TMP DP  RH WIND       PRES   REMARKS
BIG PINEY      FAIR      25  14  63 CALM      30.36F
PINEDALE       FAIR      21  12  68 NW5       30.36F WCI  15
DUBOIS         FAIR      37   3  23 CALM      30.22F
LANDER         PTSUNNY   20  16  84 CALM      30.31F
RIVERTON       PTSUNNY   21  12  68 VRB3      30.32F
CASPER         FAIR      30   5  34 SW23      30.30F WCI  17
DOUGLAS        FAIR      14   1  56 CALM      30.33F

$$
WYZ021-027>030-104>119-162000-
SOUTHERN WYOMING

CITY           SKY/WX    TMP DP  RH WIND       PRES   REMARKS
EVANSTON       FAIR      27  14  58 CALM      30.33F
FORT BRIDGER   FAIR      26  15  61 E9        30.38F WCI  17
ROCK SPRINGS   FAIR      22   6  50 CALM      30.36F
DIXON            N/A     25  -1  32 W5        30.42F WCI  19
RAWLINS        FAIR      26   2  35 S3        30.36F
SARATOGA       FAIR      30  -9  17 SE8       30.35F WCI  23
LARAMIE        FAIR      29  -7  20 SE6       30.29F WCI  23
CHEYENNE       FAIR      30  -5  21 S9        30.32F WCI  22
TORRINGTON     FAIR      13   2  61 SE7       30.41F WCI   3

$$




USA.gov is the U.S. government's official web portal to all federal, state and local government web resources and services.